TimeEST,TemperatureF,Dew PointF,Humidity,Sea Level PressureIn,VisibilityMPH,Wind Direction,Wind SpeedMPH,Gust SpeedMPH,PrecipitationIn,Events,Conditions,WindDirDegrees,DateUTC
12:53 AM,28.0,19.9,72,30.09,10.0,NE,11.5,-,N/A,,Overcast,50,2013-03-02 05:53:00
1:53 AM,28.0,19.9,72,30.09,10.0,NNE,10.4,-,N/A,,Overcast,20,2013-03-02 06:53:00
2:53 AM,27.0,19.0,72,30.09,10.0,NNE,6.9,-,N/A,,Overcast,20,2013-03-02 07:53:00
3:53 AM,27.0,19.9,75,30.07,10.0,North,10.4,-,N/A,,Overcast,10,2013-03-02 08:53:00
4:53 AM,27.0,19.0,72,30.07,10.0,North,8.1,-,N/A,,Overcast,350,2013-03-02 09:53:00
5:53 AM,27.0,19.0,72,30.07,10.0,North,12.7,-,N/A,,Overcast,10,2013-03-02 10:53:00
6:53 AM,27.0,18.0,69,30.08,10.0,NNE,10.4,-,N/A,,Overcast,30,2013-03-02 11:53:00
7:53 AM,27.0,18.0,69,30.09,10.0,NNE,11.5,-,N/A,,Overcast,30,2013-03-02 12:53:00
8:38 AM,26.6,19.4,74,30.07,2.0,North,9.2,-,0.00,Snow,Light Snow,350,2013-03-02 13:38:00
8:48 AM,26.6,19.4,74,30.07,4.0,NNE,8.1,-,0.00,Snow,Light Snow,20,2013-03-02 13:48:00
8:53 AM,27.0,19.9,75,30.10,3.0,North,6.9,-,0.00,Snow,Light Snow,10,2013-03-02 13:53:00
9:53 AM,27.0,19.0,72,30.10,5.0,North,13.8,-,0.00,Snow,Light Snow,10,2013-03-02 14:53:00
10:17 AM,26.6,19.4,74,30.08,2.5,North,10.4,-,0.00,Snow,Light Snow,10,2013-03-02 15:17:00
10:26 AM,26.6,19.4,74,30.08,4.0,North,13.8,-,0.00,Snow,Light Snow,10,2013-03-02 15:26:00
10:53 AM,27.0,19.0,72,30.11,6.0,North,10.4,-,0.00,,Haze,360,2013-03-02 15:53:00
11:53 AM,28.0,19.0,69,30.10,10.0,NNW,10.4,-,N/A,,Overcast,340,2013-03-02 16:53:00
12:53 PM,28.9,18.0,64,30.09,10.0,North,12.7,-,N/A,,Overcast,10,2013-03-02 17:53:00
1:53 PM,28.9,17.1,61,30.08,10.0,North,10.4,-,N/A,,Overcast,10,2013-03-02 18:53:00
2:33 PM,30.2,17.6,60,30.05,10.0,NNW,10.4,-,N/A,,Overcast,340,2013-03-02 19:33:00
2:53 PM,30.0,18.0,61,30.07,10.0,North,9.2,-,N/A,,Overcast,360,2013-03-02 19:53:00
3:53 PM,30.9,18.0,59,30.07,10.0,North,9.2,-,N/A,,Overcast,350,2013-03-02 20:53:00
4:53 PM,30.9,19.0,61,30.07,10.0,NNW,11.5,-,N/A,,Overcast,330,2013-03-02 21:53:00
5:53 PM,30.9,19.0,61,30.07,10.0,NW,11.5,-,N/A,,Overcast,320,2013-03-02 22:53:00
6:53 PM,30.9,19.9,64,30.08,10.0,NNW,4.6,-,N/A,,Overcast,340,2013-03-02 23:53:00
8:53 PM,30.0,19.0,64,30.09,10.0,North,10.4,-,N/A,,Overcast,350,2013-03-03 01:53:00
9:53 PM,30.0,19.0,64,30.09,10.0,NNW,13.8,-,N/A,,Overcast,330,2013-03-03 02:53:00
10:03 PM,30.2,19.4,64,30.07,10.0,NNW,15.0,-,N/A,,Overcast,330,2013-03-03 03:03:00
10:51 PM,28.4,17.6,64,30.07,10.0,NNW,17.3,-,N/A,,Overcast,340,2013-03-03 03:51:00
10:53 PM,28.9,18.0,64,30.09,10.0,NNW,17.3,-,N/A,,Overcast,340,2013-03-03 03:53:00
11:53 PM,28.9,16.0,58,30.09,10.0,NNW,15.0,-,N/A,,Overcast,340,2013-03-03 04:53:00